Change the Weather History Date:

Saturday, June 15, 2013

  Actual Average Record
Temperature  
Mean Temperature 70 °F -  
Max Temperature 79 °F 80 °F 89 °F (2000)
Min Temperature 61 °F 63 °F 55 °F (2006)
Cooling Degree Days 5    
Growing Degree Days 20 (Base 50)    
Moisture  
Dew Point 62 °F    
Average Humidity 74    
Maximum Humidity 94    
Minimum Humidity 48    
Precipitation  
Precipitation 0.00 in - - ()
Sea Level Pressure  
Sea Level Pressure 30.01 in    
Wind  
Wind Speed 5 mph ()    
Max Wind Speed 14 mph    
Max Gust Speed -    
Visibility 6.2 miles    
Events      
Averages and records for this station are not official NWS values.
T = Trace of Precipitation, MM = Missing Value Source: Averaged Metar Reports

Daily Weather History Graph

Daily Weather History Graph

Search for Another Location

Airport or City:

Trip Planner

Search our weather history database for the weather conditions in past years. The results will help you decide how hot, cold, wet, or windy it might be!

Date:

Astronomy

Jun. 15, 2013 Rise Set
Actual Time 6:02 AM CEST 9:27 PM CEST
Civil Twilight 5:26 AM CEST 10:03 PM CEST
Nautical Twilight 4:39 AM CEST 10:49 PM CEST
Astronomical Twilight 3:40 AM CEST 11:49 PM CEST
Moon 12:32 PM CEST (6/15) 12:45 AM CEST (6/15)
Length of Visible Light 16h 36m
Length of Day
15h 24m
Waxing Crescent, 37% of the Moon is Illuminated
Jun 15
Waxing Crescent
Jun 16
First Quarter
Jun 23
Full
Jun 30
Last Quarter
Jul 8
New

Hourly Weather History & Observations

Time (CEST) Temp. Dew Point Humidity Pressure Visibility Wind Dir Wind Speed Gust Speed Precip Events Conditions
12:00 AM 66.2 °F 59.0 °F 78% 30.04 in - SSW 4.6 mph - N/A   Clear
12:30 AM 66.2 °F 59.0 °F 78% 30.04 in - SSW 4.6 mph - N/A   Clear
1:00 AM 66.2 °F 60.8 °F 83% 30.04 in - WSW 3.5 mph - N/A   Clear
1:30 AM 66.2 °F 59.0 °F 78% 30.04 in 6.2 mi Variable 2.3 mph - N/A   Unknown
2:00 AM 65 °F 59 °F 76% 30.03 in 37 mi WNW 2.3 mph - -   Clear
2:00 AM 64.4 °F 59.0 °F 83% 30.01 in 6.2 mi Variable 2.3 mph - N/A   Unknown
2:30 AM 64.4 °F 59.0 °F 83% 30.01 in 6.2 mi Calm Calm - N/A   Unknown
3:00 AM 64.4 °F 59.0 °F 83% 30.01 in 6.2 mi Variable 2.3 mph - N/A   Unknown
3:30 AM 64.4 °F 59.0 °F 83% 30.01 in 6.2 mi North 3.5 mph - N/A   Unknown
4:00 AM 62.6 °F 59.0 °F 88% 30.01 in 6.2 mi North 3.5 mph - N/A   Unknown
4:30 AM 62.6 °F 59.0 °F 88% 30.01 in - NNE 3.5 mph - N/A   Clear
5:00 AM 62.6 °F 59.0 °F 88% 30.01 in - NNE 3.5 mph - N/A   Clear
5:30 AM 62.6 °F 59.0 °F 88% 30.01 in - North 4.6 mph - N/A   Clear
6:00 AM 60.8 °F 59.0 °F 94% 30.01 in - North 4.6 mph - N/A   Clear
6:30 AM 62.6 °F 59.0 °F 88% 30.01 in - North 3.5 mph - N/A   Clear
7:00 AM 62.6 °F 59.0 °F 88% 30.01 in - Variable 2.3 mph - N/A   Clear
7:30 AM 64.4 °F 60.8 °F 88% 30.04 in - North 4.6 mph - N/A   Clear
8:00 AM 65 °F 60 °F 81% 30.04 in 37 mi North 3.5 mph - -   Mostly Cloudy
8:00 AM 66.2 °F 60.8 °F 83% 30.04 in - North 3.5 mph - N/A   Clear
8:30 AM 66.2 °F 60.8 °F 83% 30.04 in - Variable 3.5 mph - N/A   Clear
9:00 AM 69.8 °F 60.8 °F 73% 30.04 in - Variable 1.2 mph - N/A   Clear
9:30 AM 71.6 °F 60.8 °F 69% 30.04 in - Calm Calm - N/A   Clear
10:00 AM 73.4 °F 60.8 °F 65% 30.04 in - SSE 3.5 mph - N/A   Clear
10:30 AM 73.4 °F 62.6 °F 69% 30.04 in - South 5.8 mph - N/A   Clear
11:00 AM 73.4 °F 62.6 °F 69% 30.04 in - South 4.6 mph - N/A   Clear
11:30 AM 75.2 °F 62.6 °F 65% 30.04 in - South 5.8 mph - N/A   Clear
12:00 PM 77.0 °F 62.6 °F 61% 30.04 in - South 4.6 mph - N/A   Clear
12:30 PM 77.0 °F 62.6 °F 61% 30.04 in - South 5.8 mph - N/A   Clear
1:00 PM 77.0 °F 62.6 °F 61% 30.04 in - SSW 8.1 mph - N/A   Clear
1:30 PM 77.0 °F 62.6 °F 61% 30.01 in - SSW 8.1 mph - N/A   Clear
2:00 PM 77 °F 64 °F 55% 30.03 in 37 mi SSW 8.1 mph - -   Scattered Clouds
2:00 PM 77.0 °F 64.4 °F 65% 30.01 in - South 8.1 mph - N/A   Clear
2:30 PM 77.0 °F 64.4 °F 65% 30.01 in - South 8.1 mph - N/A   Clear
3:00 PM 77.0 °F 66.2 °F 69% 30.01 in - South 8.1 mph - N/A   Clear
3:30 PM 77.0 °F 66.2 °F 69% 30.01 in - South 9.2 mph - N/A   Clear
4:00 PM 77.0 °F 66.2 °F 69% 30.01 in - South 10.4 mph - N/A   Clear
4:30 PM 77.0 °F 66.2 °F 69% 30.01 in - South 10.4 mph - N/A   Clear
5:00 PM 77.0 °F 66.2 °F 69% 29.98 in - South 11.5 mph - N/A   Clear
6:00 PM 77.0 °F 64.4 °F 65% 29.98 in - SSW 10.4 mph - N/A   Clear
6:30 PM 78.8 °F 64.4 °F 61% 29.98 in - SSW 11.5 mph - N/A   Clear
7:00 PM 78.8 °F 62.6 °F 57% 29.98 in - SSW 11.5 mph - N/A   Clear
7:30 PM 78.8 °F 62.6 °F 57% 29.98 in - SSW 10.4 mph - N/A   Clear
8:00 PM 78 °F 62 °F 48% 30.00 in 25 mi SSW 12.7 mph - -   Scattered Clouds
8:00 PM 78.8 °F 62.6 °F 57% 29.98 in - SW 12.7 mph - N/A   Clear
8:30 PM 73.4 °F 64.4 °F 73% 29.98 in - SSW 13.8 mph - N/A   Clear
9:00 PM 71.6 °F 64.4 °F 78% 29.98 in - SSW 12.7 mph - N/A   Clear
9:30 PM 71.6 °F 64.4 °F 78% 29.98 in - SW 11.5 mph - N/A   Clear
10:00 PM 71.6 °F 66.2 °F 83% 29.98 in - SW 9.2 mph - N/A   Clear
10:30 PM 71.6 °F 64.4 °F 78% 30.01 in - WSW 9.2 mph - N/A   Clear
11:00 PM 71.6 °F 64.4 °F 78% 30.01 in - WSW 5.8 mph - N/A   Clear
11:30 PM 71.6 °F 64.4 °F 78% 30.01 in - SW 8.1 mph - N/A   Clear